Wind_Speed
49 48 47 46 45 43 41 40 38 38 37 36 35 34 31 30 29 29 29 29 28 28 28 28 27 26 26 25 25 25 25 25 24 25 27 26 26 25 24 23 22 22 21
44 43 42 41 39 38 37 37 37 36 34 33 31 29 28 27 28 28 28 28 27 27 27 27 26 26 26 26 26 26 25 25 25 25 26 26 26 25 25 24 23 22 21
40 39 38 37 37 36 36 36 36 35 33 32 31 29 29 28 28 28 28 28 28 27 27 27 27 27 27 28 27 27 26 26 26 25 25 26 26 26 26 25 24 23 21
39 39 38 37 37 36 36 35 35 35 34 34 33 33 32 31 31 30 30 30 30 30 29 29 29 29 30 30 29 29 29 28 27 26 26 27 27 27 27 27 25 23 21
39 38 38 37 37 36 36 36 37 37 37 37 37 37 37 36 36 36 35 35 34 34 34 33 32 32 32 32 32 31 31 30 29 28 27 27 27 27 27 27 26 24 21
38 38 37 36 36 36 37 37 38 39 40 40 40 40 41 41 41 42 42 41 41 40 39 38 37 37 36 35 35 34 33 33 32 30 28 28 28 28 28 28 27 25 22
38 37 37 37 36 37 37 38 39 40 41 41 42 43 44 44 45 45 46 46 45 44 44 43 42 41 40 39 37 36 36 35 34 32 30 29 28 28 27 27 27 26 24
36 36 35 35 35 36 37 38 39 40 41 41 42 43 44 45 45 46 46 46 45 45 45 44 43 42 41 40 39 38 37 37 36 35 33 31 30 29 29 28 28 27 26
32 32 32 32 33 34 34 35 36 37 38 39 39 40 41 42 43 43 44 44 43 43 42 41 40 40 39 39 39 38 38 38 37 37 36 34 33 31 31 30 29 28 27
27 27 28 28 29 29 30 32 33 34 35 36 36 37 38 38 38 38 38 39 38 38 38 37 37 37 38 38 38 39 39 38 38 37 37 36 35 34 33 32 31 30 29
22 22 22 24 25 27 28 30 31 32 32 32 33 33 33 33 33 32 33 33 33 34 34 33 34 35 37 38 39 39 39 39 39 38 37 36 35 34 34 34 34 33 32
18 19 21 23 24 26 27 28 29 29 29 29 29 29 29 28 28 28 28 28 28 29 29 30 30 32 34 36 37 39 40 40 40 39 39 38 37 35 35 34 34 34 34
17 19 21 22 23 24 24 25 25 26 26 27 27 27 28 28 28 28 28 27 27 27 27 27 27 27 29 31 33 35 37 38 39 40 40 39 39 38 37 36 35 35 34
17 18 19 20 21 22 23 24 25 26 27 28 29 29 29 30 30 30 30 30 30 29 28 27 27 26 26 26 27 29 31 33 35 37 39 40 41 40 39 38 37 36 35
15 17 18 20 21 22 24 25 26 27 28 29 30 31 31 31 32 32 32 32 32 31 31 31 29 28 28 27 27 26 26 27 28 30 33 36 38 39 40 41 40 40 38
15 16 18 19 20 22 24 25 27 28 29 30 30 31 32 33 33 34 35 35 34 34 34 34 33 33 32 32 31 30 29 28 27 26 26 27 30 32 35 37 39 40 40
14 16 17 18 20 21 23 25 26 28 29 30 30 30 31 32 32 33 34 35 35 36 35 35 35 35 35 35 35 35 33 32 30 29 27 25 25 26 27 30 33 35 36
15 16 17 19 20 21 23 25 26 27 27 27 27 27 28 30 31 31 32 33 34 35 35 36 36 36 36 37 38 38 38 37 36 34 32 30 28 26 26 26 27 29 31
16 17 18 19 20 21 23 25 26 27 27 27 25 24 26 27 29 30 31 32 33 33 34 35 35 35 36 37 38 40 41 41 41 40 38 36 34 32 30 28 27 26 26
18 18 19 19 20 20 22 23 25 25 25 26 27 27 28 29 30 31 31 31 31 32 32 33 34 35 35 36 37 39 41 43 44 44 44 43 41 39 37 36 34 32 30
19 19 19 19 19 20 21 22 23 23 24 25 26 27 29 31 33 34 35 34 32 31 30 31 32 33 33 33 34 35 38 41 43 45 45 46 46 45 45 44 43 40 38
19 18 18 19 19 19 20 21 22 23 23 25 27 28 29 30 32 34 34 33 31 30 29 28 29 30 31 31 32 33 35 37 40 42 43 45 47 48 49 49 49 47 46
19 19 18 18 19 19 19 20 22 23 23 25 27 30 31 32 33 33 33 32 31 30 28 27 27 28 28 28 29 31 32 34 36 39 42 44 46 48 49 49 50 51 51
20 20 19 18 18 18 19 19 21 22 24 25 27 29 31 33 33 34 33 32 31 29 28 27 26 26 26 26 27 27 29 31 33 34 37 40 43 45 47 48 49 49 50
20 20 19 19 19 19 20 20 21 22 24 27 29 30 32 34 35 35 34 33 31 30 28 27 26 26 25 25 25 25 26 27 29 31 33 36 39 41 43 45 46 47 48
21 20 19 19 20 21 21 22 23 24 26 28 30 32 34 35 36 36 36 34 32 31 29 28 27 27 26 25 24 24 25 25 26 27 29 31 34 37 39 42 43 45 46
Wind_Direction
270 271 272 273 274 275 276 277 280 282 284 284 284 282 278 274 273 272 271 271 270 268 269 271 271 271 272 274 277 280 283 285 286 287 288 288 286 284 282 283 281 280 282
268 269 270 271 272 273 273 275 279 281 282 283 285 284 279 276 275 274 273 274 273 273 273 272 272 273 274 275 276 277 280 283 286 286 287 287 284 282 281 281 281 280 280
266 268 269 270 271 272 273 275 278 278 279 281 281 282 281 277 276 277 276 276 277 277 276 275 276 276 275 275 276 276 277 281 283 285 285 284 282 280 278 278 280 278 277
264 266 268 269 271 272 272 273 275 276 277 277 277 278 278 277 277 276 277 278 278 278 278 278 278 278 277 276 276 275 275 278 280 281 281 280 279 277 275 275 278 276 273
263 265 266 268 270 270 271 272 273 274 275 275 276 276 276 276 276 276 276 276 278 279 278 278 279 279 279 277 276 275 275 275 276 276 276 276 276 275 274 274 276 274 270
263 264 265 267 269 270 272 273 274 275 275 276 276 276 276 276 275 275 274 275 276 276 277 277 277 277 278 277 276 274 274 273 273 273 272 270 270 271 271 272 273 272 270
261 263 264 266 269 271 274 275 276 277 277 277 277 277 276 276 276 275 275 275 275 276 276 276 276 276 276 275 274 273 272 271 270 270 268 267 265 265 266 268 268 268 265
261 262 265 268 271 274 276 277 278 278 279 280 280 279 278 278 278 278 278 277 276 276 276 275 275 274 273 272 272 270 269 268 266 265 264 262 261 260 260 260 262 264 265
264 265 268 271 274 276 278 279 281 282 282 282 282 281 281 280 280 279 279 278 277 277 276 275 274 272 270 269 267 266 265 264 263 261 260 259 257 256 256 257 259 260 261
265 267 270 272 275 278 281 283 284 285 285 285 285 284 283 283 283 281 280 278 277 276 274 272 270 268 265 264 263 262 261 260 260 259 258 257 256 256 256 256 255 255 256
268 271 273 277 280 283 285 287 288 288 288 288 287 287 286 285 284 281 280 279 278 277 275 272 269 266 263 261 260 259 258 257 257 256 257 256 256 256 256 255 254 253 253
271 274 279 283 285 288 289 290 290 290 289 289 289 288 286 285 283 281 280 280 279 279 277 275 272 268 266 263 261 260 259 258 257 256 255 255 255 254 254 254 253 251 250
276 280 283 285 287 288 290 292 292 292 291 290 289 288 286 285 283 281 280 279 279 279 278 277 275 273 269 267 264 262 260 259 258 257 257 256 254 253 252 252 252 251 250
281 283 284 286 288 290 291 292 293 293 291 290 289 287 285 283 282 280 279 278 277 277 276 276 275 275 273 272 271 269 266 263 261 260 259 258 256 253 252 252 250 249 249
283 285 287 289 291 293 294 294 294 294 293 292 290 287 285 283 281 280 279 277 275 275 274 274 273 272 273 273 272 272 271 270 267 263 260 258 257 255 253 252 250 249 247
288 290 292 294 296 297 298 298 297 297 296 294 292 290 288 286 284 282 281 279 277 275 274 273 272 271 270 270 270 270 270 270 270 269 266 263 260 257 254 252 251 248 247
292 294 297 298 300 302 303 303 303 303 301 300 299 297 294 292 290 288 286 284 282 280 277 275 272 270 269 268 267 266 266 266 265 266 266 265 263 259 256 253 251 249 248
295 297 299 301 303 305 307 308 309 308 307 306 305 305 304 302 300 298 295 292 289 286 282 279 275 272 269 267 265 264 262 261 260 260 260 260 261 259 258 256 253 251 247
296 298 300 303 307 310 312 314 316 318 317 317 317 317 315 313 310 307 304 300 296 292 288 284 279 274 270 267 264 262 261 259 257 256 255 254 254 254 253 253 251 250 250
294 296 299 302 307 311 315 319 322 325 325 325 326 327 326 324 321 318 315 310 305 299 294 290 285 280 275 270 265 262 261 259 256 255 254 252 252 251 250 249 249 249 248
291 293 296 301 306 312 318 322 326 327 328 328 329 330 329 327 326 325 322 319 316 310 303 297 292 287 282 276 270 266 262 260 258 256 255 253 250 248 247 247 248 247 247
289 290 294 298 304 310 317 321 324 325 327 328 329 330 329 328 327 326 325 323 321 317 311 304 298 293 288 283 277 272 267 263 260 258 255 253 251 250 248 247 248 248 248
288 288 291 295 300 306 312 318 321 322 324 326 328 329 329 329 329 329 328 326 324 320 316 311 305 300 296 291 285 280 276 271 265 259 257 255 253 251 250 249 248 247 247
286 287 289 292 296 301 305 311 316 319 321 324 326 328 329 329 329 329 329 326 325 323 320 317 313 309 304 299 294 289 283 277 272 266 261 257 256 254 254 253 252 251 249
283 285 286 288 292 296 300 305 310 315 320 323 325 327 328 329 330 329 329 326 324 323 322 320 317 314 311 307 303 297 291 285 280 273 267 262 259 256 254 253 252 251 250
279 282 283 286 289 293 296 301 305 309 314 319 324 326 327 327 327 327 327 325 323 322 321 320 318 317 315 313 310 304 299 294 288 282 275 269 264 260 257 254 253 251 250
Height
5798 5799 5799 5799 5799 5798 5798 5798 5797 5796 5796 5795 5793 5792 5791 5791 5791 5790 5791 5791 5791 5791 5791 5791 5792 5792 5793 5793 5793 5793 5793 5793 5793 5792 5791 5790 5790 5791 5791 5791 5791 5791 5791
5788 5788 5789 5789 5789 5789 5789 5789 5789 5788 5787 5787 5786 5785 5784 5784 5784 5784 5784 5784 5784 5784 5784 5784 5784 5785 5785 5785 5786 5786 5786 5786 5786 5786 5784 5784 5784 5785 5785 5785 5786 5786 5786
5779 5779 5780 5780 5780 5781 5781 5781 5780 5780 5779 5779 5779 5778 5778 5777 5777 5777 5777 5777 5777 5777 5777 5777 5777 5777 5778 5778 5778 5779 5779 5779 5779 5779 5778 5778 5778 5779 5779 5780 5780 5780 5780
5770 5770 5771 5771 5772 5772 5772 5772 5772 5771 5771 5771 5771 5770 5770 5770 5769 5769 5770 5769 5769 5769 5769 5769 5769 5769 5770 5770 5770 5771 5771 5772 5772 5772 5772 5771 5772 5772 5773 5774 5774 5774 5775
5761 5761 5762 5762 5762 5763 5763 5763 5763 5763 5762 5762 5762 5761 5761 5761 5761 5761 5761 5761 5761 5761 5761 5761 5761 5761 5761 5761 5762 5762 5763 5764 5764 5765 5765 5765 5765 5766 5766 5767 5768 5768 5768
5752 5752 5753 5753 5754 5754 5754 5754 5754 5753 5753 5752 5752 5752 5751 5751 5751 5750 5750 5751 5751 5751 5751 5751 5751 5752 5752 5752 5753 5753 5754 5755 5756 5756 5757 5758 5759 5759 5760 5760 5761 5762 5763
5743 5744 5744 5745 5745 5745 5745 5744 5744 5743 5742 5741 5741 5741 5740 5740 5739 5739 5739 5739 5739 5739 5739 5740 5741 5741 5742 5742 5743 5743 5744 5745 5746 5747 5748 5749 5751 5751 5752 5753 5754 5755 5756
5734 5735 5736 5736 5736 5736 5735 5735 5734 5733 5732 5731 5730 5729 5729 5728 5727 5727 5726 5726 5726 5727 5727 5728 5728 5729 5730 5731 5732 5733 5734 5735 5736 5737 5738 5740 5741 5743 5744 5746 5747 5748 5749
5726 5727 5727 5728 5728 5727 5726 5725 5724 5723 5722 5720 5719 5718 5717 5717 5716 5715 5714 5714 5714 5714 5714 5715 5716 5717 5718 5720 5721 5722 5723 5724 5725 5726 5728 5729 5731 5733 5735 5737 5739 5740 5742
5718 5719 5719 5720 5720 5719 5718 5717 5716 5714 5713 5711 5710 5708 5707 5706 5705 5704 5703 5702 5702 5702 5702 5703 5704 5705 5706 5708 5709 5711 5712 5713 5715 5716 5717 5719 5721 5723 5725 5727 5729 5731 5733
5712 5712 5712 5712 5712 5711 5710 5709 5708 5706 5704 5702 5701 5699 5698 5697 5696 5694 5693 5693 5692 5692 5692 5693 5693 5694 5695 5696 5697 5699 5700 5702 5704 5706 5707 5709 5711 5713 5715 5717 5719 5721 5724
5706 5706 5706 5706 5705 5705 5703 5702 5700 5699 5697 5695 5693 5692 5691 5689 5688 5687 5686 5685 5684 5683 5683 5683 5683 5683 5684 5685 5686 5687 5689 5691 5693 5695 5697 5699 5701 5703 5704 5706 5708 5711 5713
5701 5701 5701 5700 5699 5698 5697 5696 5694 5692 5690 5688 5687 5685 5684 5682 5681 5680 5679 5678 5677 5676 5675 5675 5675 5674 5674 5675 5675 5676 5678 5680 5681 5683 5685 5687 5690 5691 5693 5696 5698 5700 5703
5696 5696 5696 5695 5694 5693 5691 5690 5688 5686 5684 5682 5680 5678 5676 5675 5673 5672 5671 5670 5669 5668 5667 5667 5667 5666 5666 5666 5666 5667 5668 5669 5670 5672 5673 5675 5678 5680 5682 5685 5687 5690 5693
5692 5692 5691 5690 5689 5688 5686 5684 5682 5680 5678 5675 5673 5670 5668 5667 5665 5663 5662 5660 5659 5659 5658 5658 5658 5658 5658 5658 5658 5659 5659 5660 5660 5661 5663 5664 5666 5668 5670 5673 5675 5678 5681
5688 5688 5687 5686 5684 5683 5681 5678 5676 5673 5671 5668 5665 5662 5660 5658 5656 5654 5652 5651 5649 5648 5648 5648 5648 5648 5649 5649 5649 5650 5651 5651 5652 5653 5653 5654 5656 5657 5659 5661 5663 5666 5669
5684 5683 5682 5681 5680 5678 5675 5672 5670 5667 5663 5660 5657 5654 5651 5649 5647 5644 5642 5640 5639 5638 5637 5637 5637 5637 5637 5638 5638 5639 5641 5642 5643 5644 5645 5646 5647 5648 5649 5651 5652 5655 5657
5680 5679 5678 5676 5674 5672 5669 5666 5663 5661 5657 5654 5651 5647 5644 5641 5638 5635 5633 5630 5628 5627 5626 5625 5625 5625 5625 5625 5626 5627 5628 5630 5632 5634 5636 5637 5639 5640 5641 5642 5644 5646 5648
5676 5674 5673 5671 5668 5666 5663 5660 5657 5653 5650 5646 5644 5641 5637 5633 5630 5627 5624 5621 5618 5616 5613 5612 5612 5612 5612 5612 5613 5613 5614 5616 5618 5621 5624 5626 5628 5631 5632 5634 5636 5638 5640
5671 5669 5667 5665 5663 5661 5658 5655 5651 5647 5644 5640 5636 5633 5630 5626 5622 5618 5614 5611 5608 5605 5602 5600 5598 5598 5598 5598 5599 5600 5600 5601 5604 5607 5610 5613 5616 5618 5621 5623 5626 5629 5631
5665 5664 5662 5660 5658 5655 5653 5649 5646 5643 5639 5636 5632 5628 5624 5619 5615 5610 5605 5601 5597 5594 5591 5589 5586 5585 5584 5584 5585 5585 5586 5586 5589 5592 5595 5598 5601 5604 5607 5610 5613 5616 5620
5659 5658 5656 5654 5652 5650 5648 5645 5642 5639 5635 5632 5627 5624 5620 5615 5610 5604 5599 5594 5590 5586 5582 5580 5577 5574 5573 5572 5572 5572 5572 5573 5575 5577 5579 5581 5584 5587 5591 5595 5598 5602 5605
5653 5652 5651 5649 5647 5645 5642 5640 5637 5634 5631 5627 5623 5618 5613 5609 5604 5598 5593 5588 5583 5579 5575 5572 5569 5566 5563 5562 5560 5560 5560 5560 5560 5562 5564 5566 5568 5571 5574 5578 5582 5586 5589
5646 5645 5644 5643 5641 5639 5637 5635 5632 5629 5626 5622 5618 5613 5608 5603 5598 5592 5587 5582 5577 5573 5569 5565 5562 5559 5555 5553 5551 5550 5548 5547 5547 5548 5549 5551 5553 5555 5558 5562 5565 5569 5572
5640 5639 5638 5636 5635 5633 5631 5629 5626 5623 5620 5616 5612 5607 5602 5597 5592 5586 5581 5576 5572 5567 5563 5559 5555 5552 5549 5546 5543 5541 5539 5537 5536 5536 5536 5537 5538 5540 5543 5545 5548 5551 5555
5633 5632 5631 5630 5629 5627 5625 5623 5620 5617 5614 5610 5606 5601 5596 5591 5586 5581 5576 5570 5566 5561 5557 5553 5549 5545 5542 5539 5536 5533 5530 5528 5526 5525 5524 5524 5525 5526 5528 5530 5532 5535 5538